Location: *
(41.7492°S, 135.4150°W)
Time: 00:30:42
(UTC+00:00)

SL-16 R/B - Pass Details

Date: 20 September 2021
Orbit: 985 x 1007 km, 99.5° (Epoch: 25 October)

Event Time Altitude Azimuth Distance (km) Brightness Sun altitude
Rises 13:24:04 0° 179° (S) 3,741 5.8 -17.4°
Reaches altitude 10° 13:27:13 10° 194° (SSW) 2,789 4.9 -16.8°
Maximum altitude 13:31:32 20° 238° (WSW) 2,146 3.9 -16.0°
Enters shadow 13:32:55 19° 255° (WSW) 2,219 3.9 -15.8°
